EN

Hourly Weather Calgary

Today, 16 April, Friday

Time Temperature Precipitation Wind Pressure Humidity
00:00 +5°C° 0 mm 1 mps 673 mmHg 56%
01:00 +5°C° 0 mm 1 mps 673 mmHg 58%
02:00 +5°C° 0 mm 1 mps 673 mmHg 60%
03:00 +4°C° 0 mm 1 mps 673 mmHg 61%
04:00 +4°C° 0 mm 1 mps 673 mmHg 62%
05:00 +5°C° 0 mm 1 mps 674 mmHg 58%
06:00 +6°C° 0 mm 1 mps 674 mmHg 54%
07:00 +8°C° 0 mm 1 mps 674 mmHg 50%
08:00 +9°C° 0 mm 1 mps 674 mmHg 44%
09:00 +11°C° 0 mm 1 mps 674 mmHg 39%
10:00 +13°C° 0 mm 2 mps 674 mmHg 34%
11:00 +14°C° 0 mm 2 mps 674 mmHg 31%
12:00 +15°C° 0 mm 2 mps 674 mmHg 28%
13:00 +16°C° 0 mm 2 mps 674 mmHg 25%
14:00 +16°C° 0 mm 2 mps 674 mmHg 24%
15:00 +16°C° 0 mm 2 mps 674 mmHg 24%
16:00 +16°C° 0 mm 2 mps 674 mmHg 23%
17:00 +14°C° 0 mm 2 mps 673 mmHg 28%
18:00 +13°C° 0 mm 2 mps 673 mmHg 32%
19:00 +10°C° 0 mm 2 mps 673 mmHg 36%
20:00 +9°C° 0 mm 2 mps 673 mmHg 39%
21:00 +9°C° 0 mm 1 mps 672 mmHg 41%
22:00 +9°C° 0 mm 1 mps 672 mmHg 44%
23:00 +8°C° 0 mm 1 mps 672 mmHg 45%

Tomorrow, 17 April, Saturday

Time Temperature Precipitation Wind Pressure Humidity
00:00 +8°C° 0 mm 1 mps 672 mmHg 47%
01:00 +7°C° 0 mm 1 mps 672 mmHg 48%
02:00 +7°C° 0 mm 1 mps 672 mmHg 50%
03:00 +6°C° 0 mm 1 mps 671 mmHg 52%
04:00 +5°C° 0 mm 2 mps 671 mmHg 54%
05:00 +6°C° 0 mm 2 mps 671 mmHg 52%
06:00 +8°C° 0 mm 2 mps 672 mmHg 49%
07:00 +9°C° 0 mm 2 mps 672 mmHg 47%
08:00 +12°C° 0 mm 2 mps 672 mmHg 42%
09:00 +13°C° 0 mm 3 mps 672 mmHg 36%
10:00 +14°C° 0 mm 3 mps 672 mmHg 31%
11:00 +16°C° 0 mm 3 mps 672 mmHg 30%
12:00 +17°C° 0 mm 3 mps 672 mmHg 30%
13:00 +17°C° 0 mm 3 mps 672 mmHg 29%
14:00 +17°C° 0 mm 4 mps 672 mmHg 31%
15:00 +17°C° 0 mm 4 mps 672 mmHg 33%
16:00 +16°C° 0 mm 5 mps 671 mmHg 35%
17:00 +14°C° 0 mm 5 mps 672 mmHg 42%
18:00 +13°C° 0 mm 4 mps 672 mmHg 49%
19:00 +11°C° 0 mm 4 mps 672 mmHg 56%
20:00 +9°C° 0.8 mm 5 mps 672 mmHg 66%
21:00 +8°C° 0.8 mm 5 mps 672 mmHg 76%
22:00 +6°C° 0.8 mm 5 mps 673 mmHg 86%
23:00 +5°C° 1 mm 5 mps 673 mmHg 89%

Day after tomorrow, 18 April, Sunday

Time Temperature Precipitation Wind Pressure Humidity
00:00 +2°C° 1 mm 5 mps 673 mmHg 92%
01:00 +1°C° 1 mm 5 mps 674 mmHg 95%
02:00 -1°C° 0.2 mm 6 mps 674 mmHg 94%
03:00 -1°C° 0.2 mm 6 mps 675 mmHg 93%
04:00 -2°C° 0.2 mm 6 mps 675 mmHg 92%
05:00 -3°C° 0.5 mm 7 mps 675 mmHg 91%
06:00 -3°C° 0.5 mm 7 mps 676 mmHg 90%
07:00 -4°C° 0.5 mm 7 mps 676 mmHg 90%
08:00 -4°C° 0.6 mm 7 mps 677 mmHg 88%
09:00 -4°C° 0.6 mm 7 mps 677 mmHg 86%
10:00 -4°C° 0.6 mm 7 mps 677 mmHg 84%
11:00 -3°C° 0.1 mm 7 mps 677 mmHg 76%
12:00 -2°C° 0.1 mm 6 mps 677 mmHg 68%
13:00 -1°C° 0.1 mm 6 mps 677 mmHg 60%
14:00 -1°C° 0 mm 6 mps 677 mmHg 60%
15:00 -1°C° 0 mm 6 mps 677 mmHg 60%
16:00 -1°C° 0 mm 6 mps 676 mmHg 60%
17:00 -1°C° 0 mm 4 mps 676 mmHg 64%
18:00 -1°C° 0 mm 3 mps 676 mmHg 68%
19:00 -1°C° 0 mm 2 mps 676 mmHg 72%
20:00 -1°C° 0 mm 2 mps 676 mmHg 73%
21:00 -1°C° 0 mm 2 mps 676 mmHg 75%
22:00 -1°C° 0 mm 3 mps 676 mmHg 77%
23:00 -2°C° 0.1 mm 3 mps 676 mmHg 82%

19 April, Monday

Time Temperature Precipitation Wind Pressure Humidity
00:00 -2°C° 0.1 mm 3 mps 676 mmHg 86%
01:00 -4°C° 0.1 mm 3 mps 676 mmHg 91%
02:00 -4°C° 0 mm 3 mps 676 mmHg 90%
03:00 -4°C° 0 mm 3 mps 676 mmHg 89%
04:00 -5°C° 0 mm 3 mps 676 mmHg 87%
05:00 -4°C° 0 mm 4 mps 676 mmHg 79%
06:00 -3°C° 0 mm 4 mps 676 mmHg 70%
07:00 -2°C° 0 mm 5 mps 676 mmHg 62%
08:00 -1°C° 0 mm 5 mps 676 mmHg 60%
09:00 -1°C° 0 mm 5 mps 675 mmHg 58%
10:00 0°C° 0 mm 5 mps 675 mmHg 57%
11:00 +1°C° 0 mm 5 mps 675 mmHg 56%
12:00 +1°C° 0 mm 6 mps 674 mmHg 55%
13:00 +2°C° 0 mm 6 mps 674 mmHg 55%
14:00 +2°C° 0 mm 6 mps 674 mmHg 54%
15:00 +3°C° 0 mm 6 mps 673 mmHg 54%
16:00 +3°C° 0 mm 6 mps 673 mmHg 54%
17:00 +3°C° 0 mm 4 mps 673 mmHg 60%
18:00 +2°C° 0 mm 3 mps 673 mmHg 66%
19:00 +1°C° 0 mm 2 mps 673 mmHg 72%
20:00 +1°C° 0 mm 2 mps 673 mmHg 74%
21:00 +2°C° 0 mm 1 mps 673 mmHg 76%
22:00 +1°C° 0 mm 1 mps 674 mmHg 79%
23:00 +1°C° 0.1 mm 1 mps 673 mmHg 84%

20 April, Tuesday

Time Temperature Precipitation Wind Pressure Humidity
00:00 0°C° 0.1 mm 1 mps 673 mmHg 89%
01:00 0°C° 0.1 mm 1 mps 673 mmHg 94%
02:00 0°C° 0 mm 1 mps 673 mmHg 94%
03:00 0°C° 0 mm 1 mps 673 mmHg 94%
04:00 -1°C° 0 mm 1 mps 673 mmHg 94%
05:00 0°C° 0 mm 1 mps 673 mmHg 89%
06:00 +1°C° 0 mm 1 mps 673 mmHg 83%
07:00 +2°C° 0 mm 1 mps 673 mmHg 77%
08:00 +3°C° 0 mm 1 mps 673 mmHg 72%
09:00 +3°C° 0 mm 2 mps 672 mmHg 67%
10:00 +3°C° 0 mm 2 mps 672 mmHg 61%
11:00 +4°C° 0 mm 2 mps 672 mmHg 58%
12:00 +4°C° 0 mm 3 mps 671 mmHg 55%
13:00 +5°C° 0 mm 3 mps 671 mmHg 52%
14:00 +5°C° 0 mm 3 mps 671 mmHg 51%
15:00 +5°C° 0 mm 3 mps 670 mmHg 51%
16:00 +7°C° 0 mm 3 mps 669 mmHg 50%
17:00 +5°C° 0 mm 3 mps 669 mmHg 57%
18:00 +3°C° 0 mm 3 mps 669 mmHg 63%
19:00 +2°C° 0 mm 3 mps 668 mmHg 70%
20:00 +1°C° 0 mm 3 mps 668 mmHg 71%
21:00 +1°C° 0 mm 3 mps 668 mmHg 73%
22:00 0°C° 0 mm 3 mps 667 mmHg 75%
23:00 0°C° 0 mm 3 mps 667 mmHg 76%

21 April, Wednesday

Time Temperature Precipitation Wind Pressure Humidity
00:00 0°C° 0 mm 3 mps 667 mmHg 78%
01:00 -1°C° 0 mm 2 mps 666 mmHg 79%
02:00 -1°C° 0 mm 2 mps 666 mmHg 80%
03:00 -1°C° 0 mm 2 mps 665 mmHg 81%
04:00 -1°C° 0 mm 2 mps 665 mmHg 82%
05:00 +2°C° 0 mm 2 mps 665 mmHg 74%
06:00 +4°C° 0 mm 2 mps 665 mmHg 66%
07:00 +6°C° 0 mm 2 mps 665 mmHg 58%
08:00 +8°C° 0 mm 2 mps 665 mmHg 52%
09:00 +10°C° 0 mm 2 mps 665 mmHg 47%
10:00 +12°C° 0 mm 3 mps 665 mmHg 41%
11:00 +13°C° 0 mm 3 mps 665 mmHg 39%
12:00 +14°C° 0 mm 3 mps 665 mmHg 38%
13:00 +16°C° 0 mm 3 mps 665 mmHg 36%
14:00 +14°C° 0.1 mm 3 mps 665 mmHg 40%
15:00 +13°C° 0.1 mm 3 mps 664 mmHg 44%
16:00 +12°C° 0.1 mm 4 mps 664 mmHg 49%
17:00 +11°C° 0.1 mm 4 mps 664 mmHg 52%
18:00 +10°C° 0.1 mm 3 mps 664 mmHg 56%
19:00 +9°C° 0.1 mm 3 mps 665 mmHg 59%
20:00 +5°C° 1.5 mm 4 mps 666 mmHg 71%
21:00 +2°C° 1.5 mm 6 mps 667 mmHg 83%
22:00 -2°C° 1.5 mm 7 mps 668 mmHg 94%
23:00 -2°C° 0.3 mm 6 mps 668 mmHg 94%
Show more

We Need Your Consent

Meteoprog and our Service Providers may store and access personal data such as cookies, device identifiers or other similar technologies on your device and process such data to personalise content and ads, as well as provide social media features and to analyse the traffic.

  • Store and/or access information on your device

    Cookies, device identifiers or other information can be stored or accessed on your device for the purposes indicated above.

  • Personalised ads and content, ad and content measurement, audience insights, and products development

    Ads and content can be personalised based on a profile. More data can be added to better personalise ads and content. Ad and content performance can be measured. Insights about the audience who saw the ads and content can be derived. Such data can be used to develop or improve user’s experience, systems and software.

By clicking ‘I Agree’ you will allow the use of indicated cookies, device identifiers, web beacons or other similar technologies. Your settings can be changed in the browser on your device.

For certain purposes, legitimate interests may be relied on, rather than consent. You can read more about this in our Privacy and Cookie Policy.